Location: Forestville
(38.4740°N, 122.8890°W)
Time: 22:19:57
(UTC-08:00)

Amateur Radio Satellites - All Passes

Search period start: 29 January 2015 21:49
Search period end: 30 January 2015 21:49
Location: Forestville, 38.4740°N, 122.8890°W

Satellite Date Start Highest point End Downlink Frequencies (MHz)
Time Altitude Azimuth
CINEMA 3 29 Jan 21:54:11 21:58:23 27° 267° (W) 22:02:35 145.822/145.860
AAUSAT CUBESAT 2 29 Jan 21:59:06 22:00:42 12° 271° (W) 22:02:02 437.432
AISAT 29 Jan 22:02:45 22:07:11 80° 76° (ENE) 22:11:42 437.250
UWE-3 29 Jan 22:03:35 22:07:58 39° 263° (W) 22:12:23 435.000/436.395/437.385
ANTELSAT 29 Jan 22:08:03 22:11:38 25° 94° (E) 22:15:14 437.575/2403.000
ESTCUBE 1 29 Jan 22:08:04 22:12:11 37° 72° (ENE) 22:16:20 437.505/2401.250
ISS 29 Jan 22:12:12 22:15:19 41° 326° (NNW) 22:18:28 145.825
TIGRISAT 29 Jan 22:15:14 22:19:04 29° 95° (E) 22:22:51 435.000
DOVE 4 29 Jan 22:15:48 22:17:01 11° 275° (W) 22:17:53 437.250
Oscar 11 29 Jan 22:15:57 22:18:45 16° 269° (W) 22:21:23 145.826/435.025
NANOSAT C BR1 29 Jan 22:18:17 22:21:13 18° 92° (E) 22:24:16 145.865
SPROUT 29 Jan 22:22:56 22:24:18 12° 65° (ENE) 22:25:55 437.525
VELOX 1 29 Jan 22:30:52 22:35:10 50° 260° (W) 22:39:31 145.980
QB50P2 29 Jan 22:32:26 22:36:06 27° 95° (E) 22:39:47 145.880/145.840
50 SAT 29 Jan 22:33:39 22:37:39 47° 261° (W) 22:41:41 437.505
CUBEBUG 1 29 Jan 22:37:03 22:41:23 73° 76° (ENE) 22:45:45 437.445
QB50P1 29 Jan 22:41:21 22:45:15 34° 97° (E) 22:49:10 145.935-145.965
BUGSAT 1 29 Jan 22:49:33 22:53:24 32° 97° (E) 22:57:15 437.445
UKube-1 29 Jan 22:53:29 22:54:40 11° 271° (W) 22:55:34 .
TISAT 1 29 Jan 22:55:23 22:58:52 26° 70° (ENE) 23:02:27 437.305
POLYITAN 1 29 Jan 22:56:23 23:00:37 52° 100° (E) 23:04:48 437.675
HUMSAT D 29 Jan 23:05:03 23:08:02 17° 268° (W) 23:10:53 437.325/437.525
UNISAT 6 29 Jan 23:08:04 23:12:30 67° 285° (WNW) 23:16:48 437.425
AIST 1 29 Jan 23:14:24 23:18:17 31° 268° (W) 23:22:07
POPSAT HIP 1 29 Jan 23:15:58 23:20:18 87° 103° (ESE) 23:24:36 437.405
DUCHIFAT 1 29 Jan 23:18:12 23:22:32 89° 290° (WNW) 23:26:49 145.980
SWISSCUBE 29 Jan 23:40:41 23:43:17 15° 65° (ENE) 23:46:04 437.505
ANTELSAT 29 Jan 23:44:40 23:48:27 27° 290° (WNW) 23:52:04 437.575/2403.000
ESTCUBE 1 29 Jan 23:46:02 23:49:15 19° 268° (W) 23:52:19 437.505/2401.250
ISS 29 Jan 23:51:21 23:52:32 11° 345° (NNW) 23:53:41 145.825
TIGRISAT 29 Jan 23:52:10 23:55:44 23° 291° (WNW) 23:59:07 435.000
NANOSAT C BR1 29 Jan 23:53:18 23:57:14 35° 288° (WNW) 00:01:06 145.865
BEESAT 29 Jan 23:55:31 23:58:50 20° 67° (ENE) 00:02:19 436.000
SPROUT 29 Jan 23:55:41 23:59:57 62° 260° (W) 00:04:16 437.525
ITUPSAT 1 29 Jan 23:59:41 00:03:11 21° 67° (ENE) 00:06:49 437.325
QB50P2 30 Jan 00:08:27 00:11:57 24° 290° (WNW) 00:15:20 145.880/145.840
QB50P1 30 Jan 00:17:48 00:20:57 20° 292° (WNW) 00:23:59 145.935-145.965
BUGSAT 1 30 Jan 00:25:29 00:28:43 21° 291° (WNW) 00:31:51 437.445
TISAT 1 30 Jan 00:31:10 00:34:41 24° 266° (W) 00:38:08 437.305
POLYITAN 1 30 Jan 00:33:56 00:36:10 14° 294° (WNW) 00:38:12 437.675
Oscar 19 30 Jan 00:50:59 00:54:58 23° 93° (E) 00:59:03 437.125/150
GONETS M04 30 Jan 01:01:52 01:10:23 60° 92° (E) 01:18:55
ITAMSAT 1 30 Jan 01:10:53 01:12:19 11° 88° (E) 01:14:07 435.822/435.867
SWISSCUBE 30 Jan 01:16:05 01:20:45 56° 260° (W) 01:25:26 437.505
STARS 30 Jan 01:31:56 01:35:30 24° 69° (ENE) 01:39:09 437.465
BEESAT 30 Jan 01:31:56 01:36:27 41° 262° (W) 01:40:57 436.000
ITUPSAT 1 30 Jan 01:36:27 01:40:53 38° 263° (W) 01:45:19 437.325
KKS-1 30 Jan 01:39:22 01:43:37 45° 73° (ENE) 01:47:55 437.445
O/OREOS (USA 219) 30 Jan 01:44:21 01:48:49 48° 65° (ENE) 01:53:16 437.305
M-CUBED/EXP-1 PRIME 30 Jan 01:48:02 01:51:10 23° 67° (ENE) 01:54:12 437.505
BEESAT 2 30 Jan 01:50:14 01:54:12 50° 117° (ESE) 01:58:14 435.950
AIST 2 30 Jan 01:51:21 01:54:27 21° 112° (ESE) 01:57:43 435.215
BEESAT 3 30 Jan 02:03:21 02:07:26 83° 121° (ESE) 02:11:37 437.485
Gurwin Techsat 1B 30 Jan 02:10:07 02:14:49 32° 96° (E) 02:19:34 435.225
AUBIESAT-1 30 Jan 02:19:46 02:23:38 49° 70° (ENE) 02:27:14 437.475
Oscar 19 30 Jan 02:29:42 02:34:29 39° 289° (WNW) 02:39:11 437.125/150
CUSAT 1 30 Jan 02:31:41 02:36:17 17° 82° (E) 02:41:28 437.405
ITAMSAT 1 30 Jan 02:47:17 02:52:32 78° 285° (WNW) 02:57:45 435.822/435.867
RS-15 30 Jan 02:51:43 02:57:36 17° 102° (ESE) 03:04:18 29.354- 29.394
GONETS M04 30 Jan 03:00:27 03:07:50 28° 292° (WNW) 03:14:58
ISS 30 Jan 03:05:12 03:07:45 20° 25° (NNE) 03:10:19 145.825
STARS 30 Jan 03:08:00 03:11:54 28° 264° (W) 03:15:44 437.465
PCSat 30 Jan 03:16:20 03:20:44 27° 109° (ESE) 03:25:15 145.827
KKS-1 30 Jan 03:17:47 03:20:33 16° 269° (W) 03:23:10 437.445
HORYU 2 30 Jan 03:22:11 03:26:31 50° 100° (E) 03:30:49 437.375
M-CUBED/EXP-1 PRIME 30 Jan 03:22:46 03:26:07 24° 258° (WSW) 03:29:13 437.505
O/OREOS (USA 219) 30 Jan 03:25:12 03:27:52 15° 259° (W) 03:30:19 437.305
MOZHAYETS 4 30 Jan 03:25:23 03:29:00 24° 69° (ENE) 03:32:42
JAS-2 30 Jan 03:28:00 03:30:00 12° 89° (E) 03:32:32 435.910
AIST 2 30 Jan 03:28:57 03:32:53 35° 307° (NW) 03:36:52 435.215
BEESAT 2 30 Jan 03:29:58 03:32:45 17° 315° (NW) 03:35:26 435.950
BEESAT 3 30 Jan 03:44:38 03:46:13 12° 319° (NW) 03:47:38 437.485
DANDE 30 Jan 03:46:23 03:54:09 52° 92° (E) 04:02:30 436.750
Gurwin Techsat 1B 30 Jan 03:50:08 03:54:45 30° 291° (WNW) 03:59:17 435.225
AUBIESAT-1 30 Jan 03:57:36 03:58:47 11° 263° (W) 03:59:43 437.475
CUSAT 1 30 Jan 04:10:11 04:18:23 84° 97° (E) 04:26:50 437.405
AO-7 30 Jan 04:14:19 04:22:34 62° 103° (ESE) 04:30:46 29.400- 29.500
ISS 30 Jan 04:41:13 04:44:27 54° 223° (SW) 04:47:41 145.825
RS-15 30 Jan 04:57:37 05:08:33 84° 120° (ESE) 05:19:36 29.354- 29.394
PCSat 30 Jan 04:58:54 05:03:59 40° 305° (NW) 05:09:05 145.827
PRISM 30 Jan 04:59:01 05:02:14 23° 69° (ENE) 05:05:31 437.425
HORYU 2 30 Jan 05:00:16 05:02:49 15° 294° (WNW) 05:05:10 437.375
MOZHAYETS 4 30 Jan 05:02:02 05:06:08 31° 264° (W) 05:10:10
JAS-2 30 Jan 05:09:56 05:15:43 86° 285° (WNW) 05:22:15 435.910
YUBILEINY 30 Jan 05:12:23 05:18:12 20° 63° (ENE) 05:24:30 435.215
CUTE-I 30 Jan 05:19:11 05:22:03 15° 89° (E) 05:25:11 437.470
CUBESAT XI-V 30 Jan 05:20:15 05:24:08 29° 70° (ENE) 05:28:08 437.345
DANDE 30 Jan 05:30:19 05:37:56 37° 290° (WNW) 05:45:42 436.750
STRAND 1 30 Jan 05:50:12 05:55:00 45° 72° (ENE) 05:59:54 437.568
CUSAT 1 30 Jan 05:56:05 06:02:27 22° 297° (WNW) 06:08:28 437.405
AO-7 30 Jan 06:07:56 06:14:55 30° 301° (WNW) 06:21:39 29.400- 29.500
PRISM 30 Jan 06:34:12 06:37:41 26° 264° (W) 06:41:06 437.425
Cubesat XI-IV 30 Jan 06:37:34 06:42:59 87° 103° (ESE) 06:48:23 437.490
CUTE-I 30 Jan 06:57:20 07:02:40 63° 286° (WNW) 07:07:58 437.470
CUBESAT XI-V 30 Jan 06:57:45 07:01:36 25° 266° (W) 07:05:23 437.345
JAS-2 30 Jan 06:58:02 07:00:21 12° 297° (WNW) 07:02:22 435.910
YUBILEINY 30 Jan 07:07:28 07:16:17 82° 264° (W) 07:25:06 435.215
RS-15 30 Jan 07:12:59 07:22:25 31° 325° (NW) 07:31:47 29.354- 29.394
VERMONT LUNAR 30 Jan 07:23:39 07:26:24 22° 149° (SSE) 07:29:12 437.305
STRAND 1 30 Jan 07:30:48 07:34:30 19° 268° (W) 07:38:02 437.568
CANX-2 30 Jan 07:59:09 08:01:18 14° 90° (E) 08:03:40 2200.000
Cubesat XI-IV 30 Jan 08:20:15 08:22:26 12° 299° (WNW) 08:24:21 437.490
CUTE 1.7 + AOD 2 30 Jan 08:22:09 08:25:33 24° 94° (E) 08:28:59 437.475
GOMX 1 30 Jan 08:28:08 08:32:56 33° 94° (E) 08:37:34 467.674
PHONESAT 2.4 30 Jan 08:28:35 08:31:56 37° 154° (SSE) 08:35:18 2401.200-2431.200
DOVE 4 30 Jan 08:35:16 08:39:33 27° 93° (E) 08:43:44 437.250
BRITE-PL 30 Jan 08:38:07 08:43:43 61° 99° (E) 08:49:03 437.365/2234.400
HO-68 30 Jan 08:45:00 08:51:57 52° 100° (E) 08:58:54 435.675
SEEDS 30 Jan 08:50:44 08:54:44 43° 98° (E) 08:58:44 437.485
VERMONT LUNAR 30 Jan 09:00:46 09:04:15 87° 169° (SSE) 09:07:46 437.305
SO-50 30 Jan 09:00:51 09:03:47 18° 110° (ESE) 09:06:57 436.795
UKube-1 30 Jan 09:05:29 09:06:40 11° 89° (E) 09:08:09 .
ANTELSAT 30 Jan 09:05:57 09:09:26 21° 68° (ENE) 09:13:02 437.575/2403.000
YUBILEINY 30 Jan 09:07:30 09:11:56 14° 281° (WNW) 09:15:43 435.215
NANOSAT C BR1 30 Jan 09:11:12 09:12:55 13° 66° (ENE) 09:14:52 145.865
TIGRISAT 30 Jan 09:12:42 09:16:26 24° 69° (ENE) 09:20:15 435.000
COMPASS 1 30 Jan 09:15:29 09:19:39 72° 101° (E) 09:23:47 437.405
CUBEBUG 2 30 Jan 09:18:26 09:21:54 22° 92° (E) 09:25:23 437.445
ZACube-1 30 Jan 09:21:26 09:24:02 16° 90° (E) 09:26:46 437.345
QB50P2 30 Jan 09:24:56 09:27:50 18° 68° (ENE) 09:30:52 145.880/145.840
DX 1 30 Jan 09:25:56 09:29:14 21° 94° (E) 09:32:39 434.975-435.025
DELFI C3 30 Jan 09:29:38 09:33:16 32° 97° (E) 09:36:55 145.870
FUNcube-1 30 Jan 09:32:28 09:35:44 21° 93° (E) 09:39:02 145.935
QB50P1 30 Jan 09:33:25 09:36:41 22° 69° (ENE) 09:40:04 145.935-145.965
CANX-2 30 Jan 09:33:32 09:37:33 43° 287° (WNW) 09:41:32 2200.000
RS-15 30 Jan 09:33:32 09:39:55 16° 359° (N) 09:46:23 29.354- 29.394
BUGSAT 1 30 Jan 09:39:18 09:42:09 19° 68° (ENE) 09:45:10 437.445
AAUSAT CUBESAT 2 30 Jan 09:40:55 09:45:02 64° 285° (WNW) 09:49:07 437.432
POLYITAN 1 30 Jan 09:48:24 09:52:14 33° 71° (ENE) 09:56:08 437.675
CINEMA 3 30 Jan 09:50:17 09:55:09 89° 115° (ESE) 09:59:44 145.822/145.860
UWE-3 30 Jan 09:55:19 09:59:39 47° 98° (E) 10:03:50 435.000/436.395/437.385
AISAT 30 Jan 09:56:27 09:59:25 18° 92° (E) 10:02:31 437.250
CUTE 1.7 + AOD 2 30 Jan 09:57:55 10:01:28 26° 290° (WNW) 10:04:55 437.475
Oscar 11 30 Jan 10:02:54 10:07:14 79° 284° (WNW) 10:11:31 145.826/435.025
UNISAT 6 30 Jan 10:05:05 10:09:49 88° 66° (ENE) 10:14:33 437.425
GOMX 1 30 Jan 10:06:18 10:10:58 29° 291° (WNW) 10:15:20 467.674
PHONESAT 2.4 30 Jan 10:06:47 10:10:23 74° 348° (NNW) 10:14:02 2401.200-2431.200
POPSAT HIP 1 30 Jan 10:07:23 10:11:33 53° 74° (ENE) 10:15:46 437.405
AIST 1 30 Jan 10:07:28 10:08:56 12° 87° (E) 10:10:38
DUCHIFAT 1 30 Jan 10:09:19 10:13:28 55° 74° (ENE) 10:17:41 145.980
BEESAT 2 30 Jan 10:11:54 10:15:10 22° 48° (NE) 10:18:29 435.950
DOVE 4 30 Jan 10:12:44 10:17:22 33° 290° (WNW) 10:21:43 437.250
50 SAT 30 Jan 10:15:07 10:18:24 24° 95° (E) 10:21:43 437.505
AIST 2 30 Jan 10:15:14 10:16:51 12° 41° (NE) 10:18:39 435.215
BRITE-PL 30 Jan 10:17:49 10:21:43 19° 295° (WNW) 10:25:18 437.365/2234.400
VELOX 1 30 Jan 10:23:12 10:27:17 33° 97° (E) 10:31:22 145.980
BEESAT 3 30 Jan 10:24:27 10:28:13 32° 52° (NE) 10:31:56 437.485
SEEDS 30 Jan 10:27:49 10:30:16 15° 293° (WNW) 10:32:31 437.485
CUBEBUG 1 30 Jan 10:28:55 10:31:31 16° 91° (E) 10:34:17 437.445
HO-68 30 Jan 10:33:20 10:39:23 30° 297° (WNW) 10:45:16 435.675
UKube-1 30 Jan 10:39:00 10:43:19 58° 286° (WNW) 10:47:34 .
VERMONT LUNAR 30 Jan 10:39:02 10:42:30 59° 2° (N) 10:45:59 437.305
SO-50 30 Jan 10:39:34 10:43:59 47° 306° (NW) 10:48:33 436.795
ANTELSAT 30 Jan 10:41:38 10:46:02 37° 263° (W) 10:50:23 437.575/2403.000
NANOSAT C BR1 30 Jan 10:44:11 10:48:23 56° 260° (W) 10:52:36 145.865
TIGRISAT 30 Jan 10:48:49 10:53:04 32° 264° (W) 10:57:16 435.000
HUMSAT D 30 Jan 10:49:29 10:53:45 89° 101° (ESE) 10:57:55 437.325/437.525
CUBEBUG 2 30 Jan 10:54:39 10:58:42 31° 289° (WNW) 11:02:34 437.445
ZACube-1 30 Jan 10:56:32 11:00:42 41° 287° (WNW) 11:04:43 437.345
QB50P2 30 Jan 10:59:33 11:03:32 36° 263° (W) 11:07:30 145.880/145.840
DX 1 30 Jan 11:01:39 11:05:35 32° 289° (WNW) 11:09:27 434.975-435.025
DELFI C3 30 Jan 11:05:30 11:08:20 18° 291° (WNW) 11:11:01 145.870
FUNcube-1 30 Jan 11:08:16 11:12:11 31° 289° (WNW) 11:15:57 145.935
QB50P1 30 Jan 11:08:42 11:12:28 29° 264° (W) 11:16:12 145.935-145.965
BUGSAT 1 30 Jan 11:13:47 11:17:28 32° 263° (W) 11:21:12 437.445
GONETS M04 30 Jan 11:14:33 11:21:29 27° 67° (ENE) 11:28:40
POLYITAN 1 30 Jan 11:25:05 11:28:17 20° 267° (W) 11:31:23 437.675
AISAT 30 Jan 11:32:01 11:36:16 40° 288° (WNW) 11:40:27 437.250
UWE-3 30 Jan 11:33:09 11:35:49 15° 294° (WNW) 11:38:16 435.000/436.395/437.385
ESTCUBE 1 30 Jan 11:38:38 11:43:12 80° 282° (WNW) 11:47:43 437.505/2401.250
AIST 1 30 Jan 11:42:05 11:46:12 48° 281° (W) 11:50:21
SPROUT 30 Jan 11:44:29 11:48:04 25° 94° (E) 11:51:43 437.525
PHONESAT 2.4 30 Jan 11:45:32 11:49:08 65° 6° (N) 11:52:46 2401.200-2431.200
POPSAT HIP 1 30 Jan 11:46:08 11:47:52 12° 271° (W) 11:49:23 437.405
DUCHIFAT 1 30 Jan 11:48:17 11:49:46 11° 271° (W) 11:51:00 145.980
RS-15 30 Jan 11:48:28 11:57:41 29° 33° (NNE) 12:07:29 29.354- 29.394
BEESAT 2 30 Jan 11:49:42 11:53:30 34° 245° (WSW) 11:57:12 435.950
50 SAT 30 Jan 11:50:13 11:53:29 23° 290° (WNW) 11:56:38 437.505
AIST 2 30 Jan 11:51:51 11:56:09 84° 240° (WSW) 12:00:21 435.215
VELOX 1 30 Jan 12:00:14 12:03:42 22° 292° (WNW) 12:07:03 145.980
BEESAT 3 30 Jan 12:02:58 12:06:11 22° 248° (WSW) 12:09:17 437.485
CUBEBUG 1 30 Jan 12:03:55 12:08:11 44° 287° (WNW) 12:12:23 437.445
PCSat 30 Jan 12:05:34 12:09:14 19° 46° (NE) 12:13:03 145.827
Oscar 19 30 Jan 12:06:20 12:10:45 30° 69° (ENE) 12:15:17 437.125/150
TISAT 1 30 Jan 12:16:39 12:20:54 58° 100° (E) 12:25:07 437.305
VERMONT LUNAR 30 Jan 12:17:12 12:20:43 76° 198° (SSW) 12:24:14 437.305
ITAMSAT 1 30 Jan 12:26:52 12:29:58 17° 64° (ENE) 12:33:16 435.822/435.867
GONETS M04 30 Jan 13:10:29 13:19:01 62° 268° (W) 13:27:31
SWISSCUBE 30 Jan 13:18:01 13:22:32 41° 98° (E) 13:27:04 437.505
SPROUT 30 Jan 13:20:29 13:24:08 26° 290° (WNW) 13:27:41 437.525
AO-7 30 Jan 13:23:46 13:28:02 16° 52° (NE) 13:32:45 29.400- 29.500
PHONESAT 2.4 30 Jan 13:24:10 13:27:43 51° 203° (SSW) 13:31:15 2401.200-2431.200
Gurwin Techsat 1B 30 Jan 13:29:42 13:34:41 44° 71° (ENE) 13:39:44 435.225
BEESAT 30 Jan 13:33:25 13:38:07 56° 100° (E) 13:42:49 436.000
ITUPSAT 1 30 Jan 13:38:09 13:42:54 61° 101° (E) 13:47:40 437.325
Oscar 19 30 Jan 13:45:27 13:50:04 31° 264° (W) 13:54:37 437.125/150
PCSat 30 Jan 13:47:50 13:53:15 69° 245° (WSW) 13:58:36 145.827
TISAT 1 30 Jan 13:54:27 13:56:17 12° 295° (WNW) 13:57:55 437.305
VERMONT LUNAR 30 Jan 13:55:56 13:58:31 19° 212° (SSW) 14:01:03 437.305
RS-15 30 Jan 14:00:34 14:12:02 86° 59° (ENE) 14:24:01 29.354- 29.394
ITAMSAT 1 30 Jan 14:03:56 14:09:02 59° 259° (W) 14:14:11 435.822/435.867
HORYU 2 30 Jan 14:19:14 14:23:25 39° 72° (ENE) 14:27:37 437.375
DANDE 30 Jan 14:34:32 14:40:08 31° 67° (ENE) 14:44:33 436.750
CUSAT 1 30 Jan 14:55:55 15:01:47 56° 75° (ENE) 15:06:07 437.405
SWISSCUBE 30 Jan 14:56:39 15:00:09 20° 293° (WNW) 15:03:32 437.505
STARS 30 Jan 14:58:48 15:03:13 58° 101° (E) 15:07:33 437.465
PHONESAT 2.4 30 Jan 15:04:27 15:05:49 12° 216° (SW) 15:07:04 2401.200-2431.200
M-CUBED/EXP-1 PRIME 30 Jan 15:05:57 15:08:23 19° 100° (E) 15:10:58 437.505
KKS-1 30 Jan 15:08:22 15:12:52 71° 285° (WNW) 15:17:19 437.445
Gurwin Techsat 1B 30 Jan 15:10:50 15:14:55 21° 268° (W) 15:18:51 435.225
AO-7 30 Jan 15:11:17 15:19:35 73° 70° (ENE) 15:27:56 29.400- 29.500
BEESAT 30 Jan 15:12:44 15:15:35 15° 295° (WNW) 15:18:13 436.000
ITUPSAT 1 30 Jan 15:17:47 15:20:22 14° 296° (WNW) 15:22:45 437.325
JAS-2 30 Jan 15:22:13 15:26:53 31° 70° (ENE) 15:31:27 435.910
AUBIESAT-1 30 Jan 15:37:16 15:40:29 45° 104° (ESE) 15:43:51 437.475
O/OREOS (USA 219) 30 Jan 15:54:54 15:59:22 77° 110° (ESE) 16:03:54 437.305
HORYU 2 30 Jan 15:57:09 16:00:17 18° 268° (W) 16:03:16 437.375
RS-15 30 Jan 16:14:46 16:23:26 24° 256° (WSW) 16:31:41 29.354- 29.394
DANDE 30 Jan 16:18:10 16:23:31 29° 274° (W) 16:27:37 436.750
Cubesat XI-IV 30 Jan 16:21:04 16:24:00 16° 63° (ENE) 16:27:09 437.490
STARS 30 Jan 16:37:07 16:39:15 13° 295° (WNW) 16:41:09 437.465
CUTE-I 30 Jan 16:39:24 16:43:22 23° 66° (ENE) 16:47:31 437.470
M-CUBED/EXP-1 PRIME 30 Jan 16:40:49 16:43:23 20° 294° (WNW) 16:45:56 437.505
CUSAT 1 30 Jan 16:41:00 16:43:46 14° 280° (W) 16:45:58 437.405
MOZHAYETS 4 30 Jan 16:58:02 17:02:36 69° 101° (E) 17:07:09
AO-7 30 Jan 17:06:45 17:13:11 23° 268° (W) 17:19:16 29.400- 29.500
JAS-2 30 Jan 17:07:17 17:12:04 29° 264° (W) 17:16:32 435.910
SO-50 30 Jan 17:33:00 17:35:52 16° 41° (NE) 17:38:54 436.795
O/OREOS (USA 219) 30 Jan 17:38:00 17:39:28 11° 309° (NW) 17:40:41 437.305
Cubesat XI-IV 30 Jan 17:58:19 18:03:36 67° 258° (WSW) 18:08:56 437.490
STRAND 1 30 Jan 18:03:15 18:06:31 17° 91° (E) 18:09:59 437.568
YUBILEINY 30 Jan 18:12:30 18:18:40 23° 83° (E) 18:25:14 435.215
JUGNU 30 Jan 18:17:04 18:19:15 12° 179° (S) 18:21:26 437.505
PRISM 30 Jan 18:17:45 18:21:46 46° 100° (E) 18:25:47 437.425
CUTE-I 30 Jan 18:18:09 18:23:12 44° 262° (W) 18:28:17 437.470
MOZHAYETS 4 30 Jan 18:37:41 18:39:20 12° 295° (WNW) 18:40:44
CUBESAT XI-V 30 Jan 18:54:55 18:59:38 88° 94° (E) 19:04:22 437.345
SRMSAT 30 Jan 19:00:47 19:02:39 11° 175° (S) 19:04:33 437.500
SO-50 30 Jan 19:12:09 19:17:06 81° 240° (WSW) 19:22:00 436.795
HO-68 30 Jan 19:12:23 19:18:35 34° 65° (ENE) 19:24:53 435.675
CUTE 1.7 + AOD 2 30 Jan 19:14:48 19:17:18 16° 68° (ENE) 19:19:59 437.475
GOMX 1 30 Jan 19:34:28 19:38:53 31° 69° (ENE) 19:43:35 467.674
DOVE 4 30 Jan 19:39:16 19:43:19 25° 68° (ENE) 19:47:36 437.250
STRAND 1 30 Jan 19:41:05 19:46:06 51° 287° (WNW) 19:51:04 437.568
SEEDS 30 Jan 19:41:58 19:45:30 26° 71° (ENE) 19:49:05 437.485
BRITE-PL 30 Jan 19:46:57 19:51:53 56° 74° (ENE) 19:57:15 437.365/2234.400
PRISM 30 Jan 19:54:40 19:56:57 14° 293° (WNW) 19:59:03 437.425
COMPASS 1 30 Jan 20:05:37 20:09:33 40° 73° (ENE) 20:13:32 437.405
YUBILEINY 30 Jan 20:06:09 20:14:49 69° 280° (W) 20:23:30 435.215
CUBEBUG 2 30 Jan 20:15:41 20:18:51 18° 67° (ENE) 20:22:11 437.445
ZACube-1 30 Jan 20:17:11 20:19:04 13° 65° (ENE) 20:21:12 437.345
DELFI C3 30 Jan 20:17:25 20:20:09 18° 69° (ENE) 20:23:00 145.870
DX 1 30 Jan 20:21:06 20:23:45 16° 66° (ENE) 20:26:33 434.975-435.025
CANX-2 30 Jan 20:24:40 20:28:58 75° 259° (WSW) 20:33:17 2200.000
FUNcube-1 30 Jan 20:27:37 20:30:21 16° 67° (ENE) 20:33:17 145.935
AAUSAT CUBESAT 2 30 Jan 20:30:19 20:34:30 70° 76° (ENE) 20:38:42 437.432
CUTE 1.7 + AOD 2 30 Jan 20:48:51 20:52:56 42° 262° (W) 20:57:02 437.475
SRMSAT 30 Jan 20:48:59 20:50:58 12° 185° (S) 20:52:55 437.500
CINEMA 3 30 Jan 20:49:50 20:54:44 70° 76° (ENE) 20:59:47 145.822/145.860
UWE-3 30 Jan 20:50:54 20:55:06 35° 72° (ENE) 20:59:24 435.000/436.395/437.385
AISAT 30 Jan 20:54:12 20:56:30 14° 66° (ENE) 20:58:59 437.250
Oscar 11 30 Jan 20:56:03 21:00:21 66° 75° (ENE) 21:04:41 145.826/435.025
HO-68 30 Jan 20:59:22 21:06:10 44° 261° (W) 21:12:55 435.675
50 SAT 30 Jan 21:02:29 21:04:34 14° 67° (ENE) 21:06:50 437.505
GOMX 1 30 Jan 21:12:25 21:16:57 31° 266° (W) 21:21:39 467.674
DOVE 4 30 Jan 21:16:09 21:20:51 38° 264° (W) 21:25:45 437.250
SEEDS 30 Jan 21:17:49 21:21:19 24° 266° (W) 21:24:44 437.485
ISS 30 Jan 21:19:45 21:23:01 80° 321° (NW) 21:26:19 145.825
VELOX 1 30 Jan 21:20:02 21:23:40 26° 69° (ENE) 21:27:23 145.980
CUBEBUG 1 30 Jan 21:25:31 21:26:52 12° 65° (ENE) 21:28:29 437.445
BRITE-PL 30 Jan 21:27:37 21:30:57 17° 272° (W) 21:34:10 437.365/2234.400
UKube-1 30 Jan 21:32:21 21:36:40 83° 255° (WSW) 21:41:03 .
HUMSAT D 30 Jan 21:39:53 21:44:05 52° 75° (ENE) 21:48:21 437.325/437.525
COMPASS 1 30 Jan 21:42:56 21:45:31 15° 269° (W) 21:47:55 437.405
